Miscellaneous Local Product
Issued by NWS North Platte, NE

Home | Current Version | Previous Version | Text Only | Print | Product List | Glossary On
Versions: 1 2 3 4 5 6 7 8 9 10 11 12 13 14 15 16 17 18 19 20 21 22 23 24 25 26 27 28 29 30 31 32 33 34 35 36 37 38 39 40 41 42 43 44 45 46 47 48 49 50
000
AXUS43 KLBF 020210
MISLBF


WESTERN AND NORTH CENTRAL NEBRASKA HOURLY WEATHER ROUNDUP
NATIONAL WEATHER SERVICE NORTH PLATTE NE
900 PM CDT WED OCT 01 2014

***STATIONS NOT REPORTING VARIABLES SUCH AS SKY/WEATHER OR
PRESSURE ARE PROVIDED BY THE NEBRASKA DEPARTMENT OF
ROADS...RAWS...AND APRS NETWORKS...AND ARE NOT UNDER
NATIONAL WEATHER SERVICE QUALITY CONTROL***

...OBSERVATIONS IN AND NEAR THE EASTERN PANHANDLE OF NEBRASKA...

CITY           SKY/WX    TMP DP  RH WIND       PRES   REMARKS
PINE RIDGE     LGT RAIN  49  47  93 CALM      29.97R
CHADRON        CLOUDY    51  48  89 NE3       29.98R
ALLIANCE       LGT RAIN  49  45  86 N13       29.97R
SIDNEY         RAIN      47  43  86 NW18G26   30.02R FOG
WHITECLAY        N/A     46  44  91 NW5         N/A
RUSHVILLE        N/A     47  45  93 N15         N/A
LISCO            N/A     53  44  71 W23         N/A
BIG SPRINGS      N/A     62  55  78 CALM        N/A
$$

...OBSERVATIONS IN NORTH CENTRAL NEBRASKA...

CITY           SKY/WX    TMP DP  RH WIND       PRES   REMARKS
VALENTINE      LGT RAIN  55  48  77 N14G25    29.89R
THEDFORD       CLOUDY    62  49  61 N13G20    29.85R
AINSWORTH      PTCLDY    55  47  74 N7        29.86R
O`NEILL        CLEAR     60  52  76 N7        29.83S
ORD            PTCLDY    57  50  77 N6        29.79R
BROKEN BOW     CLEAR     64  50  60 NE9       29.80S
SPRINGVIEW       N/A     61  48  62 N7          N/A
ROSE             N/A     62  54  74 N7          N/A
NEWPORT          N/A     60  51  70 S5          N/A
SARGENT          N/A     63  51  64 CALM        N/A
COMSTOCK         N/A     62  54  74 CALM        N/A
CHAMBERS         N/A     61  49  65 E3          N/A
EWING            N/A     60  53  78 CALM        N/A
$$

...OBSERVATIONS IN SOUTHWEST NEBRASKA AND FAR NORTHEAST COLORADO...

CITY           SKY/WX    TMP DP  RH WIND       PRES   REMARKS
WRAY           RAIN      50  48  90 NW24G40   29.93R
HOLYOKE        TSTM      54  50  87 NW25G33   29.96R
IMPERIAL         N/A     56  46  69 NW33G52   29.89R
OGALLALA       RAIN      55  51  86 NW35G47   29.88R
NORTH PLATTE   PTCLDY    61  48  62 NE10      29.80R
MCCOOK         CLEAR     64  46  52 NE5       29.78R
LEXINGTON      CLEAR     63  54  72 NE7       29.79R
PAXTON           N/A     62  49  62 CALM        N/A
SUTHERLAND       N/A     59  47  63 E3          N/A
BRADY            N/A     60  49  67 CALM        N/A
GOTHENBURG       N/A     67  47  48 NE3         N/A
CALLAWAY         N/A     62  52  69 E3          N/A
$$

...SOME WEATHER OBSERVATIONS FROM AROUND THE REGION...

CITY           SKY/WX    TMP DP  RH WIND       PRES   REMARKS
DENVER         MOCLDY    44  41  89 N9        30.02R
LARAMIE        CLOUDY    39  34  82 CALM      30.04R
CHEYENNE       CLEAR     39  35  86 N9        30.02R WCI  33
SCOTTSBLUFF    CLOUDY    49  46  90 CALM      29.99R
RAPID CITY     CLOUDY    52  41  66 N8        29.95R
PIERRE         MOCLDY    52  45  77 NW6       29.87R
WINNER         FAIR      59  48  67 N13       29.88R
SIOUX FALLS    PTCLDY    61  53  75 W3        29.81R
OMAHA          PTCLDY    67  62  84 E6        29.78R
GRAND ISLAND   LGT RAIN  66  55  67 NE9       29.80R
KANSAS CITY    MOCLDY    68  65  90 E13       29.73F
WICHITA        PTCLDY    77  55  46 SW5       29.67R
HAYS           PTCLDY    64  57  77 CALM      29.76R
LIBERAL        CLEAR     72  39  30 E6        29.77S
GOODLAND       CLOUDY    55  46  71 NW23G38   29.89R
$$



USA.gov is the U.S. government's official web portal to all federal, state and local government web resources and services.